Regional Weather Roundup
Issued by NWS Charleston, SC

Current Version | Previous Version | Graphics & Text | Print | Product List | Glossary On
Versions: 1 2 3 4 5 6 7 8 9 10 11 12 13 14 15 16 17 18 19 20 21 22 23 24 25 26 27 28 29 30 31 32 33 34 35 36 37 38 39 40 41 42 43 44 45 46 47 48 49 50
000
ASUS42 KCHS 241010
RWRCHS

REGIONAL WEATHER ROUNDUP
NATIONAL WEATHER SERVICE CHARLESTON SC
600 AM EDT THU APR 24 2014

NOTE: "FAIR" INDICATES FEW OR NO CLOUDS BELOW 12,000 FEET WITH NO
SIGNIFICANT WEATHER AND/OR OBSTRUCTIONS TO VISIBILITY.

NOT ALL STATIONS ARE QUALITY CONTROLLED BY THE NATIONAL
WEATHER SERVICE. USE DATA WITH CAUTION...ESPECIALLY
DEWPOINT OBSERVATIONS.

SCZ027-030-031-034>040-042>050-241100-
...SOUTH CAROLINA...

CITY           SKY/WX    TMP DP  RH WIND       PRES   REMARKS
N CHARLESTON   CLEAR     57  51  80 NE5       29.99R
WATERFRONT PRK NOT AVBL
FORT JOHNSON   NOT AVBL
MOUNT PLEASANT DRIZZLE   55  54  94 CALM      29.98R
JOHNS ISLAND   SUNNY     63  57  82 NE9       29.98R
PINOPOLIS        N/A     61  52  72 E9        29.91R
MONCKS CORNER  FAIR      54  52  94 NE3       29.99R
SUMMERVILLE    NOT AVBL
BEAUFORT MCAS  CLEAR     64  56  75 SE5       29.96R
BEAUFORT ARPT  FAIR      63  61  94 E8        29.96R
HILTON HEAD IS NOT AVBL
GEORGETOWN     NOT AVBL
WALTERBORO     SUNNY     55  50  82 NE7       29.99R
ORANGEBURG     CLEAR     54  39  57 NE7       30.01R
BARNWELL       FAIR      54  43  66 NE7       30.00R
AIKEN          FAIR      52  39  62 NE8       30.05R
MANNING        FAIR      54  43  66 NE6       30.02R
KINGSTREE      NOT AVBL
COLUMBIA       CLEAR     57  33  40 NE6       30.02R
SUMTER         CLEAR     47  37  68 NE7       30.02R
FLORENCE       CLEAR     48  38  68 NE7       30.04R
MYRTLE BEACH   CLEAR     54  39  58 NE12      30.02R
N MYRTLE BEACH CLEAR     51  40  65 NE8       30.02R

$$

GAZ063-065-086>088-099>101-113>116-118-119-134-136>141-150-241100-
...GEORGIA...

CITY           SKY/WX    TMP DP  RH WIND       PRES   REMARKS
SAVANNAH ARPT  CLEAR     56  53  90 N3        29.95R
HUNTER AAF     CLEAR     56  56  99 CALM      29.93R
FORT STEWART   CLEAR     54  54 100 CALM      29.93R
STATESBORO     NOT AVBL
SYLVANIA       SUNNY     54  51  90 CALM      29.96R
CLAXTON        FAIR     N/A N/A N/A CALM      29.95R HAZE
THOMSON        CLEAR     53  44  71 E7        30.04R
AUGUSTA-BUSH   CLEAR     46  43  89 CALM      30.00R
AUGUSTA-DANIEL CLEAR     60  36  40 NE10      30.01R
SWAINSBORO     FAIR      59  45  58 NE7       29.96R
VIDALIA        CLEAR     55  50  82 CALM      29.96R
ALMA           CLEAR     56  53  90 CALM      29.95R FOG
WAYCROSS       NOT AVBL
JESUP          FAIR      54  54 100 NW3       29.95R
BRUNSWICK      CLOUDY    59  59 100 CALM      29.95R VSB 3/4
SAINT SIMONS   MOCLDY    63  61  93 CALM      29.94R

$$

SCZ027-028-034-036>038-045-046-048>050-GAZ119-141-241100-
...LAKE AND SUPPLEMENTAL COASTAL OBSERVATIONS...

STATION/POSITION TIME  TEMP    WIND        PRES    WAVE   SWELL
                       AIR SEA DIR/SP/G            HT/PER HT/PER/DIR
                 (UTC) (F)     (DEG/KT/KT) (MB)    (FT/S) (FT/S/D)
UPR LAKE MARION  NOT AVBL
WINYAH BAY       0900   62      20/  3     1015.0R
LAKE MURRAY      0900   55      30/  2/  3 1015.9R
ACE BASIN NERRS  0900   60        CALM     1014.0S
FORT PULASKI     1000   62 60   CALM  /  1 1014.1R
SAPELO ISLAND    0900   62     190/  2     1013.0S

$$

ANZ835-935-AMZ111-154-330-350-352-354-374-450-454-472-241100-
...C-MAN AND BUOY OBSERVATIONS...

STATION/POSITION TIME  TEMP    WIND        PRES    WAVE   SWELL
                       AIR SEA DIR/SP/G            HT/PER HT/PER/DIR
                 (UTC) (F)     (DEG/KT/KT) (MB)    (FT/S) (FT/S/D)
FOLLY BEACH CMAN 0900   65      60/ 11/ 12 1014.7R
BUOY 41004       1000   71 70   70/ 14/ 16 1013.6R   2/ 8   2/ 8
BUOY 41008       1000   68 67  200/  6/  6 1013.5R   1/ 9   2/ 90/ 9
5E ST. MARYS GA  1000      67                N/A     1/ 8
FRYING PAN BUOY  1000   64 68   20/ 14/ 17 1014.9R   3/ 9   2/ 80/ 9
BUOY 41025       1000   55 74   10/ 23/ 27 1015.9R   6/ 6   2/ 60/11
CAPE LOOKOUT NC  0900   59      30/ 12/ 13 1016.0R
BUOY 41002       NOT AVBL
BUOY 41010       1000   73 75   CALM  /  4 1014.5R   2/ 8   2/ 90/ 8
BUOY 41012       NOT AVBL
ST AUGUSTINE FL  1000   65     250/  4/  5 1014.6R
CAPERS NEARSHORE NOT AVBL
FRIPP NEARSHORE  0900   64      50/  4/  6   N/A


$$


USA.gov is the U.S. government's official web portal to all federal, state and local government web resources and services.